Location: Friaudour
(46.0460°N, 1.2873°E)
Time: 19:50:32
(UTC+00:00)

H-2A R/B - Pass Details

Date: 14 July 2020
Orbit: 577 x 656 km, 98.5° (Epoch: 14 August)

Event Time Altitude Azimuth Distance (km) Brightness Sun altitude
Rises 03:39:36 0° 178° (S) 2,929 5.2 -6.2°
Reaches altitude 10° 03:41:52 10° 184° (S) 2,014 4.3 -5.9°
Maximum altitude 03:46:07 49° 259° (W) 806 2.3 -5.3°
Drops below altitude 10° 03:50:19 10° 335° (NNW) 1,983 4.8 -4.7°
Sets 03:52:32 0° 341° (NNW) 2,879 5.8 -4.4°
